星链-4396 (STARLINK-4396 )

导读 | 豆包AI

STARLINK-4396是美国SpaceX星链星座的一员,于2022年8月28日发射升空,属于星链互联网卫星组网批次。它运行在近地轨道,依托星链系统部署,为全球提供低延迟宽带互联网服务,尤其支持偏远地区、海运航空等场景的网络接入,是星链大规模商业化组网进程中的一颗常规卫星。

基本信息
目录编号:
53637
目录名称:
STARLINK-4396
国际标识:
2022-104BB
轨道中心:
EARTH
卫星名称:
星链-4396
卫星全名:
星链-4396 (STARLINK-4396 )
卫星状态:
在轨 (已飞行1295 天)
发射日期:
2022-08-28 UTC
国别 :
美国 (US)
星等 :
--
轨道信息
数据来源 国际轨道数据
星历时间: 2026-03-15T01:32:43+0800
14小时前
查看轨道信息
半长轴: 6917.868km
偏心率: 0.0001195
轨道倾角: 53.217°
近地点辐角 85.148°
升交点赤经 201.672°
平近点角 274.965°
近地点: 538.904km
远地点: 540.558km
周期: 95.437分钟
每日圈数: 15.088442
详细信息
固有亮度:
5
最大亮度:
2.5
卫星平台:
Starlink v1.5
覆盖范围:
全球
运营商:
太空探索技术公司
运营商所在国:
美国
制造商(研发单位):
太空探索技术公司
制造商所在国:
美国
使用方式:
暂无
卫星简介
星链(Starlink)计划是由太空探索技术公司(SpaceX)提出的一个巨型低轨卫星互联网星座项目,计划在2019年至2024年间在太空搭建由约1.2万颗卫星组成的“星链”网络,其中1584颗将部署在地球上空550千米处的近地轨道,并从2020年开始工作。该卫星仍在工作。
2D轨道图
3D轨道图
轨道高度分析图
轨道倾角分析图
轨道综合分析图
查看轨道综合分析图